Stations météo

réclame
Mon MeteoGroup
Mont-De-Marsan, France (7607): Température de l'air & dewpoint: 20.09.2018 17:00:00 - 26.09.2018 17:00:00 (CEST)Mont-De-Marsan, France (7607): Température de l'air 5cm: 20.09.2018 17:00:00 - 26.09.2018 17:00:00 (CEST)Mont-De-Marsan, France (7607): Température de l'air -20cm & Température de l'air -100cm: 20.09.2018 17:00:00 - 26.09.2018 17:00:00 (CEST)Mont-De-Marsan, France (7607): Vitesse du vent & gusts: 20.09.2018 17:00:00 - 26.09.2018 17:00:00 (CEST)Mont-De-Marsan, France (7607): Direction du vent: 20.09.2018 17:00:00 - 26.09.2018 17:00:00 (CEST)Mont-De-Marsan, France (7607): reduced air pressure: 20.09.2018 17:00:00 - 26.09.2018 17:00:00 (CEST)Mont-De-Marsan, France (7607): visibility: 20.09.2018 17:00:00 - 26.09.2018 17:00:00 (CEST)Mont-De-Marsan, France (7607): Ensoleillement: 20.09.2018 17:00:00 - 26.09.2018 17:00:00 (CEST)Mont-De-Marsan, France (7607): Quantités de précipitations: 20.09.2018 17:00:00 - 26.09.2018 17:00:00 (CEST)
Date & Time tt [°C] td [°C] tt 5cm [°C] tt -20cm [°C] tt -100cm [°C] ff [km/h] ff [knt] fx [km/h] fx [knt] dd ppp [hPa] vv [km] sd [min] rr [mm]
26.09.2018 17:00:00 - - - - - - - - - - - - - -
26.09.2018 16:00:00 27,7 12,1 32,2 19,8 21,3 15 8 27 15 ESE 1026,6 18 60 0,0
26.09.2018 15:00:00 26,4 12,8 31,3 19,5 21,3 14 8 26 14 ESE 1027,0 31 60 0,0
26.09.2018 14:00:00 24,7 12,9 29,9 19,3 21,3 14 8 26 14 E 1027,8 31 60 0,0
26.09.2018 13:00:00 22,9 13,4 26,7 19,2 21,3 10 5 21 11 ESE 1028,4 20 60 0,0
26.09.2018 12:00:00 20,7 13,2 22,2 19,2 21,3 11 6 25 13 ESE 1028,8 28 60 0,0
26.09.2018 11:00:00 17,2 11,7 16,7 19,3 21,3 15 8 22 12 E 1029,0 27 60 0,0
26.09.2018 10:00:00 13,2 9,6 11,2 19,4 21,3 13 7 21 12 E 1028,9 27 60 0,0
26.09.2018 09:00:00 8,0 6,8 4,6 19,6 21,3 6 3 10 5 E 1028,9 37 50 0,0
26.09.2018 08:00:00 4,9 4,2 3,5 19,8 21,3 6 3 7 4 ENE 1028,7 40 0 0,0
26.09.2018 07:00:00 5,1 3,9 3,5 20,0 21,3 3 1 8 4 ENE 1028,2 56 0 0,0
26.09.2018 06:00:00 5,4 4,4 3,5 20,2 21,4 4 2 8 4 ENE 1028,3 46 0 0,0
26.09.2018 05:00:00 5,3 4,1 3,8 20,4 21,4 3 2 5 3 NE 1028,4 50 0 0,0
26.09.2018 04:00:00 5,8 4,8 4,1 20,6 21,4 3 1 6 3 NE 1028,5 47 0 0,0
26.09.2018 03:00:00 6,2 5,0 3,9 20,8 21,4 3 2 7 4 NE 1028,4 57 0 0,0
26.09.2018 02:00:00 7,1 5,6 4,0 21,0 21,4 0 0 5 3 N 1028,5 50 0 0,0
26.09.2018 01:00:00 8,1 6,2 4,1 21,2 21,4 3 1 4 2 NE 1028,5 59 0 0,0
26.09.2018 00:00:00 9,1 6,5 4,6 21,4 21,4 2 1 8 4 E 1028,5 59 0 0,0
25.09.2018 23:00:00 10,7 6,8 5,3 21,5 21,4 4 2 8 5 W 1028,4 60 0 0,0
25.09.2018 22:00:00 11,7 7,2 6,8 21,5 21,4 0 0 4 2 N 1028,2 60 0 0,0
25.09.2018 21:00:00 13,8 7,3 7,9 21,5 21,4 0 0 3 1 N 1027,7 60 0 0,0
25.09.2018 20:00:00 17,8 5,7 12,9 21,4 21,5 2 1 10 5 ENE 1027,2 60 29 0,0
25.09.2018 19:00:00 21,2 4,3 23,6 21,1 21,5 8 4 15 8 ESE 1026,9 60 60 0,0
25.09.2018 18:00:00 21,7 4,7 26,6 20,8 21,5 6 4 16 9 SSE 1026,8 60 60 0,0
25.09.2018 17:00:00 21,8 5,2 27,4 20,5 21,5 6 3 18 10 W 1027,1 60 60 0,0
25.09.2018 16:00:00 21,2 5,5 27,4 20,1 21,5 9 5 19 10 S 1027,2 60 60 0,0
25.09.2018 15:00:00 20,7 6,6 27,1 19,9 21,5 7 4 16 9 S 1027,9 60 60 0,0
25.09.2018 14:00:00 19,7 6,4 25,6 19,7 21,5 5 3 16 8 S 1028,5 60 60 0,0
25.09.2018 13:00:00 18,1 7,5 23,2 19,6 21,5 4 2 11 6 E 1028,9 60 60 0,0
25.09.2018 12:00:00 16,2 7,4 20,5 19,7 21,5 3 2 8 4 SE 1029,3 60 60 0,0
25.09.2018 11:00:00 13,5 7,0 15,2 19,8 21,5 5 3 12 6 ESE 1029,3 60 60 0,0
25.09.2018 10:00:00 10,3 6,3 11,1 20,1 21,5 4 2 8 4 E 1029,4 60 60 0,0
25.09.2018 09:00:00 6,5 5,6 1,9 20,3 21,5 0 0 3 2 N 1029,2 51 51 0,0
25.09.2018 08:00:00 5,0 4,1 0,4 20,5 21,5 0 0 4 2 N 1029,2 43 0 0,0
25.09.2018 07:00:00 5,3 4,3 0,4 20,8 21,5 0 0 3 2 N 1028,9 58 0 0,0
25.09.2018 06:00:00 5,5 4,1 1,5 21,0 21,5 0 0 3 1 N 1029,2 57 0 0,0
25.09.2018 05:00:00 6,4 5,2 1,5 21,3 21,5 0 0 3 2 N 1029,4 59 0 0,0
25.09.2018 04:00:00 7,3 5,4 2,3 21,5 21,5 0 0 7 4 N 1029,7 60 0 0,0
25.09.2018 03:00:00 7,4 5,5 2,7 21,8 21,5 0 0 4 2 N 1030,0 60 0 0,0
25.09.2018 02:00:00 7,9 5,7 3,4 22,1 21,6 2 1 6 3 NE 1029,9 60 0 0,0
25.09.2018 01:00:00 9,4 6,3 4,7 22,3 21,6 4 2 7 4 ENE 1030,3 60 0 0,0
25.09.2018 00:00:00 9,8 6,5 4,4 22,6 21,6 0 0 9 5 N 1030,3 60 0 0,0
24.09.2018 23:00:00 11,0 7,3 6,0 22,8 21,6 3 1 8 5 NNE 1030,4 60 0 0,0
24.09.2018 22:00:00 12,5 7,0 7,6 22,9 21,6 8 4 11 6 N 1030,2 60 0 0,0
24.09.2018 21:00:00 14,3 7,1 9,1 23,0 21,6 8 4 10 6 N 1029,9 60 0 0,0
24.09.2018 20:00:00 16,7 6,5 13,2 23,0 21,6 4 2 16 9 N 1029,5 60 30 0,0
24.09.2018 19:00:00 19,0 6,8 22,4 23,0 21,6 12 6 22 12 N 1029,1 60 60 0,0
24.09.2018 18:00:00 20,0 6,0 25,6 22,8 21,6 12 7 23 12 N 1029,0 60 60 0,0
24.09.2018 17:00:00 20,7 6,6 25,9 22,7 21,6 15 8 27 14 NNE 1029,1 60 60 0,0
24.09.2018 16:00:00 20,6 7,2 26,3 22,5 21,6 11 6 22 12 N 1029,5 60 60 0,0
24.09.2018 15:00:00 19,4 8,1 22,9 22,4 21,6 12 6 28 15 N 1029,8 60 60 0,0
24.09.2018 14:00:00 18,2 10,1 19,7 22,3 21,6 11 6 23 13 N 1030,6 60 53 0,0
24.09.2018 13:00:00 16,9 10,5 19,2 22,3 21,5 10 5 23 12 NNE 1030,9 60 53 0,0
24.09.2018 12:00:00 15,3 10,5 17,2 22,4 21,5 13 7 23 13 NNW 1031,2 56 30 0,0
24.09.2018 11:00:00 15,2 10,8 14,3 22,6 21,6 15 8 26 14 NNE 1031,1 50 36 0,0
24.09.2018 10:00:00 14,7 11,5 15,2 22,8 21,6 12 7 24 13 N 1030,4 60 49 0,2
24.09.2018 09:00:00 13,4 11,1 12,3 23,0 21,6 6 4 13 7 N 1030,0 60 28 0,0
24.09.2018 08:00:00 13,1 11,3 12,0 23,1 21,5 6 3 23 13 NNW 1029,2 60 0 0,0
24.09.2018 07:00:00 14,0 12,4 13,1 23,3 21,5 14 8 31 17 N 1028,2 60 0 0,0
24.09.2018 06:00:00 15,2 14,2 15,0 23,5 21,6 18 10 30 16 N 1027,5 19 0 0,0
24.09.2018 05:00:00 17,0 16,0 16,6 23,6 21,5 19 10 27 14 N 1026,7 60 0 0,0
24.09.2018 04:00:00 17,9 17,3 17,5 23,8 21,5 7 4 11 6 W 1026,2 33 0 0,0
24.09.2018 03:00:00 18,0 17,2 17,7 23,9 21,6 5 3 18 10 WNW 1026,5 37 0 0,0
24.09.2018 02:00:00 18,5 17,5 18,1 24,0 21,6 9 5 29 16 NNW 1026,3 51 0 0,0
24.09.2018 01:00:00 19,9 19,4 19,6 24,1 21,5 14 8 23 12 W 1025,9 3,3 0 2,2
24.09.2018 00:00:00 19,9 19,4 19,4 24,2 21,6 10 5 18 10 WSW 1025,8 3,1 0 0,4
23.09.2018 23:00:00 20,0 18,8 19,3 24,3 21,6 11 6 19 10 WSW 1025,9 11 0 0,0
23.09.2018 22:00:00 20,6 18,4 20,6 24,3 21,6 14 8 24 13 WSW 1025,9 18 0 0,0
23.09.2018 21:00:00 21,2 18,0 21,0 24,3 21,6 17 9 34 18 W 1025,7 38 0 0,0
23.09.2018 20:00:00 22,1 17,5 22,0 24,1 21,6 21 11 34 18 W 1025,1 36 2 0,0
23.09.2018 19:00:00 24,0 18,0 24,9 24,0 21,6 19 10 30 16 WNW 1024,2 31 60 0,0
23.09.2018 18:00:00 25,6 18,0 28,3 23,7 21,6 21 12 40 21 WNW 1023,5 20 58 0,0
23.09.2018 17:00:00 29,3 16,8 32,7 23,4 21,6 21 11 37 20 WNW 1022,4 26 60 0,0
23.09.2018 16:00:00 28,9 16,5 30,2 23,1 21,6 19 10 32 18 NW 1022,2 25 50 0,0
23.09.2018 15:00:00 27,5 18,8 32,4 22,9 21,6 7 4 23 13 W 1022,5 24 60 0,0
23.09.2018 14:00:00 26,0 18,4 25,3 22,7 21,5 8 4 17 9 WNW 1023,3 18 51 0,0
23.09.2018 13:00:00 23,2 18,5 24,6 22,7 21,6 8 4 16 8 WSW 1023,9 18 13 0,0
23.09.2018 12:00:00 21,7 18,3 23,5 22,7 21,6 8 4 14 7 SW 1024,4 17 0 0,0
23.09.2018 11:00:00 20,2 18,1 21,0 22,7 21,6 5 3 9 5 S 1024,5 17 0 0,0
23.09.2018 10:00:00 19,0 17,7 19,4 22,8 21,6 7 4 10 5 S 1024,2 14 0 0,0
23.09.2018 09:00:00 18,6 18,4 18,1 22,9 21,6 4 2 9 5 WSW 1023,8 6 0 0,0
23.09.2018 08:00:00 18,2 17,9 17,8 23,0 21,6 5 3 9 5 W 1023,7 0,2 0 0,0
23.09.2018 07:00:00 18,0 17,5 17,8 23,1 21,6 5 3 11 6 WSW 1023,7 0,4 0 0,0
23.09.2018 06:00:00 18,1 16,6 15,7 23,3 21,6 3 2 6 4 SW 1023,7 19 0 0,0
23.09.2018 05:00:00 15,8 14,5 12,8 23,4 21,6 0 0 3 2 N 1024,1 32 0 0,0
23.09.2018 04:00:00 14,6 13,1 12,6 23,6 21,6 2 1 3 2 ESE 1024,4 31 0 0,0
23.09.2018 03:00:00 15,9 13,6 12,9 23,8 21,6 2 1 4 2 S 1025,0 33 0 0,0
23.09.2018 02:00:00 17,0 14,3 13,4 24,0 21,6 4 2 5 3 W 1025,1 40 0 0,0
23.09.2018 01:00:00 17,9 14,6 13,6 24,1 21,6 2 1 9 5 WSW 1024,9 44 0 0,0
23.09.2018 00:00:00 18,2 14,9 14,9 24,3 21,6 7 4 8 4 W 1024,8 51 0 0,0
22.09.2018 23:00:00 19,4 14,6 15,4 24,3 21,6 5 3 6 3 W 1024,5 50 0 0,0
22.09.2018 22:00:00 20,9 14,8 16,9 24,4 21,6 5 3 9 5 W 1024,0 59 0 0,0
22.09.2018 21:00:00 22,2 14,6 18,2 24,3 21,6 6 4 16 9 WNW 1023,4 60 0 0,0
22.09.2018 20:00:00 25,2 15,8 23,9 24,2 21,6 10 5 16 9 W 1022,9 57 34 0,0
22.09.2018 19:00:00 27,8 15,8 29,4 23,9 21,6 8 4 16 9 SW 1022,6 60 60 0,0
22.09.2018 18:00:00 28,1 15,7 31,6 23,6 21,6 8 4 18 10 SW 1022,5 55 60 0,0
22.09.2018 17:00:00 28,1 15,4 32,3 23,2 21,6 10 5 21 11 W 1022,8 55 60 0,0
22.09.2018 16:00:00 27,5 15,8 32,7 22,9 21,6 4 2 16 9 WSW 1022,8 51 60 0,0
22.09.2018 15:00:00 26,2 15,6 31,9 22,6 21,6 3 2 16 9 WSW 1023,2 20 60 0,0
22.09.2018 14:00:00 24,7 15,3 31,3 22,3 21,6 5 3 13 7 WSW 1023,8 43 60 0,0
22.09.2018 13:00:00 23,6 15,6 29,5 22,2 21,6 5 3 14 7 SSW 1024,0 39 60 0,0
22.09.2018 12:00:00 21,7 15,3 26,4 22,2 21,6 5 3 14 8 E 1024,2 30 60 0,0
22.09.2018 11:00:00 20,0 14,6 22,8 22,3 21,6 5 3 12 7 ESE 1024,6 26 60 0,0
22.09.2018 10:00:00 17,9 13,4 16,9 22,4 21,6 8 4 12 7 E 1024,3 22 55 0,0
22.09.2018 09:00:00 15,1 11,9 14,2 22,5 21,6 7 4 10 6 E 1024,2 31 20 0,0
22.09.2018 08:00:00 13,8 12,7 12,7 22,6 21,6 4 2 10 5 E 1024,3 29 0 0,0
22.09.2018 07:00:00 13,9 12,8 12,8 22,8 21,6 4 2 11 6 ENE 1024,0 30 0 0,0
22.09.2018 06:00:00 14,4 13,4 13,3 22,9 21,6 8 5 11 6 NE 1024,1 29 0 0,0
22.09.2018 05:00:00 14,3 13,5 12,6 23,1 21,6 7 4 9 5 N 1024,1 26 0 0,0
22.09.2018 04:00:00 15,3 14,0 13,9 23,2 21,6 4 2 10 5 ENE 1024,6 30 0 0,0
22.09.2018 03:00:00 15,7 14,2 15,5 23,3 21,6 8 4 14 8 NE 1025,0 32 0 0,0
22.09.2018 02:00:00 15,9 15,4 14,3 23,5 21,6 5 3 10 5 NE 1025,2 32 0 0,0
22.09.2018 01:00:00 16,1 15,5 14,3 23,6 21,6 0 0 9 5 N 1025,2 14 0 0,0
22.09.2018 00:00:00 16,6 16,0 13,9 23,7 21,6 5 3 8 4 NW 1025,3 20 0 0,0
21.09.2018 23:00:00 16,9 16,1 14,4 23,8 21,6 0 0 7 4 N 1024,6 35 0 0,0
21.09.2018 22:00:00 17,4 16,4 16,2 23,9 21,6 5 3 7 4 WNW 1024,6 46 0 0,0
21.09.2018 21:00:00 17,8 16,5 16,9 24,0 21,6 4 2 9 5 W 1023,8 50 0 0,0
21.09.2018 20:00:00 18,2 16,5 18,2 24,0 21,6 6 3 14 8 N 1023,4 58 0 0,0
21.09.2018 19:00:00 18,2 16,9 18,6 24,0 21,6 8 4 16 9 N 1022,9 52 0 0,0
21.09.2018 18:00:00 18,6 17,1 18,7 23,9 21,6 10 6 34 18 NNW 1022,5 10 0 0,0
21.09.2018 17:00:00 22,1 16,8 22,4 23,8 21,6 24 13 37 20 WNW 1021,6 28 0 0,0
21.09.2018 16:00:00 24,8 16,5 25,8 23,6 21,6 22 12 33 18 W 1020,4 34 1 0,0
21.09.2018 15:00:00 25,1 16,5 27,1 23,5 21,6 19 10 30 16 W 1020,2 34 0 0,0
21.09.2018 14:00:00 24,5 17,5 25,8 23,5 21,6 14 8 25 14 W 1020,6 26 7 0,0
21.09.2018 13:00:00 23,9 17,6 24,7 23,4 21,6 15 8 29 16 WSW 1020,9 18 30 0,0
21.09.2018 12:00:00 22,9 17,4 24,0 23,5 21,6 16 9 28 15 W 1021,1 16 0 0,0
21.09.2018 11:00:00 21,4 18,6 21,9 23,5 21,6 10 5 18 10 WSW 1020,7 18 0 0,0
21.09.2018 10:00:00 20,0 18,5 20,2 23,6 21,5 6 4 11 6 SW 1019,9 14 0 0,0
21.09.2018 09:00:00 19,3 18,3 18,4 23,8 21,5 7 4 14 8 SW 1019,3 11 22 0,0
21.09.2018 08:00:00 18,6 17,8 17,9 23,9 21,5 8 4 11 6 SSW 1018,4 8 0 0,0
21.09.2018 07:00:00 18,8 18,0 17,8 24,1 21,5 6 4 10 6 S 1017,6 8 0 0,0
21.09.2018 06:00:00 18,8 17,8 18,2 24,2 21,5 6 3 10 5 SW 1017,6 10 0 0,0
21.09.2018 05:00:00 18,4 17,6 16,4 24,4 21,5 5 3 9 5 WSW 1017,6 10 0 0,0
21.09.2018 04:00:00 18,5 17,8 17,2 24,6 21,5 4 2 14 7 S 1017,3 13 0 0,0
21.09.2018 03:00:00 17,5 16,7 16,6 24,7 21,5 10 6 15 8 W 1017,9 10 0 0,0
21.09.2018 02:00:00 18,4 16,4 17,6 24,9 21,5 9 5 16 9 WSW 1017,6 17 0 0,0
21.09.2018 01:00:00 19,1 16,5 18,2 25,0 21,5 10 5 19 10 WSW 1017,3 19 0 0,0
21.09.2018 00:00:00 20,1 16,9 18,6 25,1 21,5 11 6 19 10 W 1017,2 21 0 0,0
20.09.2018 23:00:00 20,6 16,8 19,0 25,2 21,5 5 3 19 10 WNW 1016,5 24 0 0,0
20.09.2018 22:00:00 21,8 18,0 19,1 25,2 21,5 9 5 15 8 WNW 1016,3 23 0 0,0
20.09.2018 21:00:00 24,1 18,5 19,3 25,2 21,5 0 0 5 3 N 1015,4 26 0 0,0
20.09.2018 20:00:00 27,0 18,0 23,4 25,0 21,5 4 2 9 5 NNW 1015,1 31 34 0,0
20.09.2018 19:00:00 31,1 17,4 32,6 24,8 21,5 5 3 13 7 WSW 1015,1 36 60 0,0
20.09.2018 18:00:00 31,5 17,0 36,0 24,4 21,5 8 5 14 8 SSW 1015,3 33 60 0,0
20.09.2018 17:00:00 31,7 16,8 37,3 24,1 21,5 6 3 16 9 SSE 1015,8 20 60 0,0

tt = Température de l'air
td = dewpoint
tt 5cm = Température de l'air 5cm
tt -20cm = Température de l'air -20cm
tt -100cm = Température de l'air -100cm
ff = Vitesse du vent
fx = gusts
dd = Direction du vent
ppp = reduced air pressure
vv = visibility
sd = Ensoleillement
rr = Quantités de précipitations

stations d'obs. à proximité